Location: Vihti�l�
(61.3833°N, 23.0667°E)
Time: 04:18:51
(UTC+00:00)

Meteor 2-3 Rocket - Pass Details

Date: 29 November 2020
Orbit: 842 x 885 km, 81.2° (Epoch: 22 January)

Event Time Altitude Azimuth Distance (km) Brightness Sun altitude
Rises 03:27:41 0° 188° (S) 3,456 6.8 -24.6°
Reaches altitude 10° 03:30:06 10° 186° (S) 2,528 6.1 -24.3°
Maximum altitude 03:35:51 75° 103° (ESE) 920 3.9 -23.6°
Drops below altitude 10° 03:41:40 10° 19° (NNE) 2,562 6.4 -22.9°
Sets 03:44:08 0° 18° (NNE) 3,507 7.1 -22.6°
